This is the latest recevied weather packets stored in our database for station/object N5PRN. If no packets are shown the sender has not sent any weather packets the latest 10 day(s).
| Time | Temp. | Humidity | Pressure | Rain* | Wind** | Luminosity | Snow |
|---|---|---|---|---|---|---|---|
| 1777563428 | 16.67° C | 99% | 1013.8 hPa | 0 mm | - | 98 W/m² | - |
| 1777563123 | 16.67° C | 99% | 1013.9 hPa | 0 mm | - | 81 W/m² | - |
| 1777562819 | 16.67° C | 99% | 1013.9 hPa | 0 mm | - | 95 W/m² | - |
| 1777562517 | 16.67° C | 99% | 1013.8 hPa | 0 mm | - | 98 W/m² | - |
| 1777562214 | 16.67° C | 99% | 1013.6 hPa | 0 mm | - | 105 W/m² | - |
| 1777561912 | 16.67° C | 99% | 1013.5 hPa | 0 mm | - | 106 W/m² | - |
| 1777561609 | 16.67° C | 99% | 1013.2 hPa | 0 mm | - | 131 W/m² | - |
| 1777561305 | 16.67° C | 99% | 1013.3 hPa | 0 mm | - | 114 W/m² | - |
| 1777561004 | 16.67° C | 99% | 1013.4 hPa | 1.78 mm | - | 99 W/m² | - |
| 1777560700 | 16.67° C | 99% | 1013.3 hPa | 1.78 mm | - | 163 W/m² | - |
| 1777560398 | 16.67° C | 99% | 1013.3 hPa | 0 mm | - | 130 W/m² | - |
| 1777560096 | 16.67° C | 99% | 1013.3 hPa | 0 mm | - | 101 W/m² | - |
| 1777559792 | 16.67° C | 99% | 1013.6 hPa | 0 mm | - | 107 W/m² | - |
| 1777559488 | 16.67° C | 99% | 1013.4 hPa | 0 mm | - | 107 W/m² | - |
| 1777559185 | 16.67° C | 99% | 1013.5 hPa | 0 mm | - | 102 W/m² | - |
| 1777558885 | 16.67° C | 99% | 1013.6 hPa | 0 mm | - | 49 W/m² | - |
| 1777558581 | 16.67° C | 99% | 1013.5 hPa | 0 mm | - | 31 W/m² | - |
| 1777558277 | 16.67° C | 99% | 1013.2 hPa | 0 mm | - | 41 W/m² | - |
| 1777557974 | 16.67° C | 99% | 1013.2 hPa | 0 mm | - | 36 W/m² | - |
| 1777557671 | 16.67° C | 99% | 1013.3 hPa | 0 mm | - | 34 W/m² | - |
| 1777557367 | 16.67° C | 99% | 1013.1 hPa | 0 mm | - | 28 W/m² | - |
| 1777557063 | 16.67° C | 99% | 1013.1 hPa | 1.27 mm | - | 29 W/m² | - |
| 1777556758 | 16.67° C | 99% | 1013.3 hPa | 3.05 mm | - | 22 W/m² | - |
| 1777556456 | 16.67° C | 99% | 1013.2 hPa | 1.78 mm | - | 24 W/m² | - |
| 1777556155 | 16.67° C | 99% | 1012.8 hPa | 1.78 mm | - | 48 W/m² | - |
* Rain latest hour (hover to see other rain measurements)
** Current wind speed in m/s (hover to see current wind gust speed)